Roanoke, VA

3:52 AM EDT on May 30, 2017 (GMT -0400)
Roanoke Regional-Woodrum

Weather History for KROA - November, 2011

Change the Weather History Date:

Wednesday, November 30, 2011

  Actual Average Record
Temperature  
Mean Temperature 41 °F 43 °F  
Max Temperature 47 °F 52 °F 75 °F (1998)
Min Temperature 34 °F 34 °F 8 °F (1929)
Degree Days  
Heating Degree Days 24 22  
Month to date heating degree days 427 508  
Since 1 July heating degree days 713 804  
Cooling Degree Days 0 0  
Month to date cooling degree days 0 1  
Year to date cooling degree days 1549 1208  
Moisture  
Dew Point 27 °F    
Average Humidity 61    
Maximum Humidity 76    
Minimum Humidity 45    
Precipitation  
Precipitation T in 0.12 in 3.09 in (1934)
Month to date precipitation 4.30 3.40  
Year to date precipitation 40.84 38.31  
Snow  
Snow 0.00 in - - ()
Month to date snowfall 0.0  
Since 1 July snowfall T  
Since 1 September snowfall T  
Snow Depth 0.00 in    
Sea Level Pressure  
Sea Level Pressure 29.96 in    
Wind  
Wind Speed 12 mph (WNW)    
Max Wind Speed 26 mph    
Max Gust Speed 35 mph    
Visibility 10 miles    
Events      
T = Trace of Precipitation, MM = Missing Value Source: NWS Daily Summary

Daily Weather History Graph

Daily Weather History Graph

Search for Another Location

Airport or City:

Trip Planner

Search our weather history database for the weather conditions in past years. The results will help you decide how hot, cold, wet, or windy it might be!

Date:

Astronomy

Nov. 30, 2011 Rise Set
Actual Time 7:14 AM EST 5:02 PM EST
Civil Twilight 6:45 AM EST 5:31 PM EST
Nautical Twilight 6:13 AM EST 6:03 PM EST
Astronomical Twilight 5:41 AM EST 6:34 PM EST
Moon 11:34 AM EST 10:53 PM EST
Length of Visible Light 10h 45m
Length of Day
9h 48m
Waxing Crescent, 33% of the Moon is Illuminated
Nov 30
Waxing Crescent
Dec 2
First Quarter
Dec 10
Full
Dec 17
Last Quarter
Dec 24
New

Hourly Weather History & Observations

Time (EST) Temp. Windchill Dew Point Humidity Pressure Visibility Wind Dir Wind Speed Gust Speed Precip Events Conditions
12:54 AM 37.0 °F 32.4 °F 30.0 °F 76% 29.78 in 10.0 mi West 5.8 mph - N/A   Mostly Cloudy
1:54 AM 37.9 °F 32.7 °F 30.0 °F 73% 29.78 in 10.0 mi WSW 6.9 mph - N/A   Scattered Clouds
2:54 AM 39.0 °F 31.8 °F 30.9 °F 73% 29.79 in 10.0 mi West 11.5 mph - N/A   Mostly Cloudy
3:54 AM 39.9 °F 31.4 °F 28.9 °F 65% 29.80 in 10.0 mi West 16.1 mph 25.3 mph N/A   Scattered Clouds
4:54 AM 39.0 °F 34.0 °F 28.9 °F 67% 29.80 in 10.0 mi West 6.9 mph - N/A   Scattered Clouds
5:54 AM 39.9 °F 31.8 °F 28.0 °F 63% 29.82 in 10.0 mi WNW 15.0 mph 19.6 mph N/A   Mostly Cloudy
6:54 AM 39.9 °F 35.1 °F 28.0 °F 63% 29.85 in 10.0 mi WNW 6.9 mph - N/A   Mostly Cloudy
7:54 AM 41.0 °F 33.5 °F 27.0 °F 57% 29.87 in 10.0 mi WNW 13.8 mph 23.0 mph N/A   Overcast
8:54 AM 41.0 °F 34.3 °F 28.0 °F 60% 29.90 in 10.0 mi West 11.5 mph 17.3 mph N/A   Overcast
9:54 AM 42.1 °F 33.6 °F 28.0 °F 58% 29.91 in 10.0 mi WNW 18.4 mph 32.2 mph N/A   Overcast
10:54 AM 43.0 °F 35.4 °F 28.0 °F 56% 29.94 in 10.0 mi NW 16.1 mph 24.2 mph N/A   Overcast
11:54 AM 43.0 °F 35.7 °F 28.9 °F 58% 29.95 in 10.0 mi WNW 15.0 mph 24.2 mph 0.00 in   Overcast
12:54 PM 44.1 °F 36.5 °F 28.9 °F 55% 29.94 in 10.0 mi WNW 17.3 mph 23.0 mph N/A   Mostly Cloudy
1:54 PM 46.9 °F - 28.0 °F 48% 29.94 in 10.0 mi WNW 13.8 mph 24.2 mph N/A   Scattered Clouds
2:54 PM 46.9 °F - 27.0 °F 46% 29.97 in 10.0 mi WNW 17.3 mph 25.3 mph N/A   Scattered Clouds
3:54 PM 46.0 °F 39.3 °F 28.0 °F 50% 29.99 in 10.0 mi West 16.1 mph 21.9 mph N/A   Scattered Clouds
4:54 PM 43.0 °F 36.4 °F 27.0 °F 53% 30.03 in 10.0 mi WNW 12.7 mph 18.4 mph N/A   Partly Cloudy
5:54 PM 41.0 °F 39.0 °F 26.1 °F 55% 30.05 in 10.0 mi Variable 3.5 mph - N/A   Clear
6:54 PM 39.9 °F 33.9 °F 26.1 °F 58% 30.08 in 10.0 mi WNW 9.2 mph - N/A   Clear
7:54 PM 39.0 °F 29.6 °F 25.0 °F 57% 30.10 in 10.0 mi WNW 18.4 mph 24.2 mph N/A   Clear
8:54 PM 39.0 °F 31.8 °F 24.1 °F 55% 30.13 in 10.0 mi NW 11.5 mph 17.3 mph N/A   Clear
9:54 PM 37.9 °F 32.1 °F 24.1 °F 57% 30.16 in 10.0 mi NW 8.1 mph - N/A   Clear
10:54 PM 37.0 °F 32.4 °F 24.1 °F 59% 30.18 in 10.0 mi NW 5.8 mph - N/A   Clear
11:54 PM 37.0 °F 30.4 °F 23.0 °F 57% 30.19 in 10.0 mi NW 9.2 mph - N/A   Clear